User: anonymous   Login
Location: Unspecified
(0.0000°N, 0.0000°E)
Time: 01:20:44
(UTC+00:00)
Language:

Intelsat II F-3 - Orbit

View from above orbital plane
View from above orbital plane
View from above satellite
View from above satellite

Ground track
Ground track

The orbit data is extracted from the following two-line orbital elements,

1  2717U 67026A   18265.56324226 -.00000321 +00000-0 +00000-0 0  9997
2  2717 002.8543 303.3547 0022569 298.4114 099.7529 01.00237131095585
Epoch (UTC): 22 September 2018 13:31:04
Eccentricity: 0.0022569
inclination: 2.8543°
perigee height: 35701 km
apogee height: 35891 km
right ascension of ascending node: 303.3547°
argument of perigee: 298.4114°
revolutions per day: 1.00237131
mean anomaly at epoch: 99.7529°
orbit number at epoch: 9558

The dashed part of the orbit path shows where the satellite is in the earth's shadow,  

DLR